| time (UTC) | temp C | wind direction | speed KPH | gust KPH | rain 1hr cm | rain 24hr cm | rain mn cm | humidity % | barometer mb |
| 20260509200900 | 31 | 150 | 0.0 | 1.6 | 0.00 | 0.00 | 0.00 | 57 | 1010.8 |
| 20260509200359 | 31 | 79 | 1.6 | 3.2 | 0.00 | 0.00 | 0.00 | 58 | 1010.5 |
| 20260509195857 | 30 | 88 | 0.0 | 1.6 | 0.00 | 0.00 | 0.00 | 60 | 1010.6 |
| 20260509195356 | 30 | 68 | 0.0 | 1.6 | 0.00 | 0.00 | 0.00 | 61 | 1010.7 |
| 20260509194851 | 31 | 169 | 1.6 | 1.6 | 0.00 | 0.00 | 0.00 | 58 | 1010.9 |
| 20260509194347 | 31 | 90 | 1.6 | 3.2 | 0.00 | 0.00 | 0.00 | 58 | 1011.0 |
| 20260509193844 | 31 | 103 | 1.6 | 3.2 | 0.00 | 0.00 | 0.00 | 59 | 1011.0 |
| 20260509193344 | 31 | 155 | 0.0 | 1.6 | 0.00 | 0.00 | 0.00 | 60 | 1011.0 |
| 20260509192840 | 30 | 247 | 3.2 | 3.2 | 0.00 | 0.00 | 0.00 | 60 | 1010.8 |
| 20260509192336 | 31 | 267 | 3.2 | 3.2 | 0.00 | 0.00 | 0.00 | 59 | 1010.9 |
| 20260509191832 | 31 | 20 | 3.2 | 8.0 | 0.00 | 0.00 | 0.00 | 61 | 1011.1 |
| 20260509191328 | 30 | 210 | 4.8 | 8.0 | 0.00 | 0.00 | 0.00 | 62 | 1011.1 |
| 20260509190824 | 30 | 357 | 4.8 | 8.0 | 0.00 | 0.00 | 0.00 | 63 | 1011.2 |
| 20260509190321 | 30 | 253 | 1.6 | 1.6 | 0.00 | 0.00 | 0.00 | 65 | 1011.1 |
| 20260509185818 | 30 | 83 | 0.0 | 0.0 | 0.00 | 0.00 | 0.00 | 64 | 1011.2 |
| 20260509185314 | 30 | 131 | 1.6 | 1.6 | 0.00 | 0.00 | 0.00 | 64 | 1011.3 |
| 20260509184812 | 30 | 273 | 3.2 | 3.2 | 0.00 | 0.00 | 0.00 | 63 | 1011.3 |
| 20260509184309 | 30 | 248 | 0.0 | 1.6 | 0.00 | 0.00 | 0.00 | 64 | 1011.3 |
| 20260509183806 | 30 | 187 | 0.0 | 1.6 | 0.00 | 0.00 | 0.00 | 65 | 1011.2 |
| 20260509183301 | 30 | 308 | 4.8 | 8.0 | 0.00 | 0.00 | 0.00 | 64 | 1011.4 |
| 20260509182756 | 30 | 182 | 0.0 | 1.6 | 0.00 | 0.00 | 0.00 | 65 | 1011.3 |
| 20260509182254 | 28 | 243 | 0.0 | 0.0 | 0.00 | 0.00 | 0.00 | 67 | 1011.2 |
| 20260509181751 | 30 | 311 | 8.0 | 11.3 | 0.00 | 0.00 | 0.00 | 63 | 1011.3 |
| 20260509181249 | 30 | 6 | 1.6 | 3.2 | 0.00 | 0.00 | 0.00 | 64 | 1011.6 |
| 20260509180746 | 30 | 289 | 1.6 | 3.2 | 0.00 | 0.00 | 0.00 | 67 | 1011.6 |
| 20260509180242 | 28 | 291 | 3.2 | 4.8 | 0.00 | 0.00 | 0.00 | 67 | 1011.7 |
| 20260509175739 | 28 | 217 | 1.6 | 3.2 | 0.00 | 0.00 | 0.00 | 68 | 1011.8 |
| 20260509175235 | 29 | 11 | 6.4 | 9.7 | 0.00 | 0.00 | 0.00 | 66 | 1011.6 |
| 20260509174731 | 29 | 166 | 0.0 | 1.6 | 0.00 | 0.00 | 0.00 | 66 | 1011.8 |
| 20260509174226 | 29 | 21 | 1.6 | 3.2 | 0.00 | 0.00 | 0.00 | 67 | 1011.7 |
| 20260509173723 | 28 | 52 | 1.6 | 1.6 | 0.00 | 0.00 | 0.00 | 68 | 1011.8 |
| 20260509173219 | 28 | 162 | 3.2 | 4.8 | 0.00 | 0.00 | 0.00 | 67 | 1011.8 |
| 20260509172715 | 28 | 44 | 1.6 | 3.2 | 0.00 | 0.00 | 0.00 | 68 | 1011.8 |
| 20260509172211 | 28 | 242 | 1.6 | 1.6 | 0.00 | 0.00 | 0.00 | 69 | 1012.1 |
| 20260509171707 | 28 | 331 | 1.6 | 3.2 | 0.00 | 0.00 | 0.00 | 68 | 1011.9 |
| 20260509171203 | 27 | 55 | 1.6 | 3.2 | 0.00 | 0.00 | 0.00 | 69 | 1012.2 |
| 20260509170700 | 27 | 312 | 4.8 | 4.8 | 0.00 | 0.00 | 0.00 | 69 | 1012.1 |
| 20260509170156 | 28 | 17 | 6.4 | 9.7 | 0.00 | 0.00 | 0.00 | 69 | 1012.2 |
| 20260509165655 | 28 | 258 | 1.6 | 1.6 | 0.00 | 0.00 | 0.00 | 71 | 1012.0 |
| 20260509165150 | 27 | 320 | 4.8 | 8.0 | 0.00 | 0.00 | 0.00 | 70 | 1012.0 |
| 20260509164646 | 27 | 305 | 3.2 | 3.2 | 0.00 | 0.00 | 0.00 | 71 | 1012.1 |
| 20260509164142 | 27 | 256 | 1.6 | 3.2 | 0.00 | 0.00 | 0.00 | 71 | 1012.2 |
| 20260509163640 | 27 | 147 | 1.6 | 1.6 | 0.00 | 0.00 | 0.00 | 73 | 1012.2 |
| 20260509163136 | 26 | 1 | 1.6 | 3.2 | 0.00 | 0.00 | 0.00 | 74 | 1012.2 |
| 20260509162633 | 26 | 259 | 1.6 | 1.6 | 0.00 | 0.00 | 0.00 | 75 | 1012.1 |
| 20260509162129 | 26 | 296 | 4.8 | 4.8 | 0.00 | 0.00 | 0.00 | 74 | 1012.3 |
| 20260509161625 | 26 | 295 | 3.2 | 3.2 | 0.00 | 0.00 | 0.00 | 75 | 1012.0 |
| 20260509161120 | 26 | 270 | 6.4 | 8.0 | 0.00 | 0.00 | 0.00 | 75 | 1012.0 |
| 20260509160617 | 26 | 285 | 3.2 | 4.8 | 0.00 | 0.00 | 0.00 | 76 | 1012.3 |
| 20260509160112 | 26 | 245 | 0.0 | 1.6 | 0.00 | 0.00 | 0.00 | 76 | 1012.3 |
| 20260509155608 | 26 | 335 | 1.6 | 1.6 | 0.00 | 0.00 | 0.00 | 77 | 1012.0 |
| 20260509155105 | 25 | 352 | 6.4 | 9.7 | 0.00 | 0.00 | 0.00 | 77 | 1012.1 |
| 20260509154600 | 25 | 13 | 6.4 | 8.0 | 0.00 | 0.00 | 0.00 | 77 | 1012.1 |
| 20260509154058 | 25 | 284 | 3.2 | 4.8 | 0.00 | 0.00 | 0.00 | 78 | 1012.0 |
| 20260509153555 | 25 | 17 | 6.4 | 9.7 | 0.00 | 0.00 | 0.00 | 79 | 1012.0 |
| 20260509153052 | 25 | 334 | 3.2 | 4.8 | 0.00 | 0.00 | 0.00 | 79 | 1012.0 |
| 20260509152548 | 25 | 270 | 4.8 | 8.0 | 0.00 | 0.00 | 0.00 | 78 | 1012.0 |
| 20260509152045 | 25 | 272 | 1.6 | 1.6 | 0.00 | 0.00 | 0.00 | 79 | 1011.8 |
| 20260509151541 | 25 | 280 | 4.8 | 8.0 | 0.00 | 0.00 | 0.00 | 80 | 1012.0 |
| 20260509151039 | 25 | 64 | 3.2 | 4.8 | 0.00 | 0.00 | 0.00 | 80 | 1012.0 |
| 20260509150536 | 24 | 131 | 1.6 | 1.6 | 0.00 | 0.00 | 0.00 | 81 | 1012.0 |
| 20260509150035 | 25 | 302 | 3.2 | 4.8 | 0.00 | 0.00 | 0.00 | 79 | 1012.2 |
| 20260509145530 | 25 | 304 | 4.8 | 8.0 | 0.00 | 0.00 | 0.00 | 80 | 1012.1 |
| 20260509145025 | 24 | 286 | 4.8 | 8.0 | 0.00 | 0.00 | 0.00 | 81 | 1012.0 |
| 20260509144523 | 24 | 329 | 4.8 | 4.8 | 0.00 | 0.00 | 0.00 | 82 | 1012.3 |
| 20260509144020 | 23 | 278 | 4.8 | 4.8 | 0.00 | 0.00 | 0.00 | 84 | 1012.4 |
| 20260509143517 | 23 | 261 | 3.2 | 3.2 | 0.00 | 0.00 | 0.00 | 85 | 1012.0 |
| 20260509143015 | 23 | 335 | 6.4 | 8.0 | 0.00 | 0.00 | 0.00 | 85 | 1012.2 |
| 20260509142510 | 23 | 285 | 4.8 | 4.8 | 0.00 | 0.00 | 0.00 | 85 | 1011.9 |
| 20260509142005 | 23 | 259 | 1.6 | 1.6 | 0.00 | 0.00 | 0.00 | 86 | 1011.9 |
| 20260509141502 | 23 | 254 | 0.0 | 0.0 | 0.00 | 0.00 | 0.00 | 86 | 1012.0 |
| 20260509140959 | 23 | 291 | 4.8 | 4.8 | 0.00 | 0.00 | 0.00 | 86 | 1011.9 |
| 20260509140455 | 22 | 228 | 1.6 | 1.6 | 0.00 | 0.00 | 0.00 | 88 | 1011.8 |
| 20260509135954 | 22 | 290 | 6.4 | 9.7 | 0.00 | 0.00 | 0.00 | 89 | 1011.8 |
| 20260509135451 | 22 | 322 | 3.2 | 4.8 | 0.00 | 0.00 | 0.00 | 89 | 1011.7 |
| 20260509134948 | 22 | 285 | 3.2 | 3.2 | 0.00 | 0.00 | 0.00 | 90 | 1011.8 |
| 20260509134445 | 22 | 300 | 1.6 | 3.2 | 0.00 | 0.00 | 0.00 | 90 | 1011.8 |
| 20260509133943 | 22 | 336 | 8.0 | 11.3 | 0.00 | 0.00 | 0.00 | 91 | 1011.7 |
| 20260509133439 | 21 | 274 | 4.8 | 4.8 | 0.00 | 0.00 | 0.00 | 92 | 1011.6 |
| 20260509132937 | 21 | 326 | 4.8 | 4.8 | 0.00 | 0.00 | 0.00 | 93 | 1011.6 |
| 20260509132435 | 21 | 285 | 1.6 | 3.2 | 0.00 | 0.00 | 0.00 | 93 | 1011.4 |
| 20260509131932 | 21 | 282 | 4.8 | 9.7 | 0.00 | 0.00 | 0.00 | 94 | 1011.5 |
| 20260509131429 | 21 | 273 | 8.0 | 9.7 | 0.00 | 0.00 | 0.00 | 95 | 1011.4 |
| 20260509130926 | 21 | 301 | 4.8 | 4.8 | 0.00 | 0.00 | 0.00 | 95 | 1011.6 |
| 20260509130421 | 21 | 318 | 1.6 | 3.2 | 0.00 | 0.00 | 0.00 | 96 | 1011.6 |
| 20260509125918 | 21 | 249 | 1.6 | 3.2 | 0.00 | 0.00 | 0.00 | 96 | 1011.5 |
| 20260509125415 | 20 | 284 | 1.6 | 1.6 | 0.00 | 0.00 | 0.00 | 97 | 1011.4 |
| 20260509124911 | 20 | 272 | 4.8 | 4.8 | 0.00 | 0.00 | 0.00 | 97 | 1011.5 |
| 20260509124408 | 20 | 294 | 1.6 | 4.8 | 0.00 | 0.00 | 0.00 | 98 | 1011.3 |
| 20260509123906 | 20 | 250 | 0.0 | 0.0 | 0.00 | 0.00 | 0.00 | 98 | 1011.6 |
| 20260509123403 | 20 | 233 | 0.0 | 0.0 | 0.00 | 0.00 | 0.00 | 98 | 1011.3 |
| 20260509122858 | 20 | 188 | 0.0 | 0.0 | 0.00 | 0.00 | 0.00 | 98 | 1011.4 |
| 20260509122355 | 20 | 188 | 0.0 | 0.0 | 0.00 | 0.00 | 0.00 | 98 | 1011.5 |
| 20260509121852 | 20 | 187 | 0.0 | 0.0 | 0.00 | 0.00 | 0.00 | 98 | 1011.6 |
| 20260509121349 | 20 | 187 | 0.0 | 0.0 | 0.00 | 0.00 | 0.00 | 97 | 1011.3 |
| 20260509120848 | 20 | 187 | 0.0 | 0.0 | 0.00 | 0.00 | 0.00 | 97 | 1011.5 |
| 20260509120345 | 20 | 187 | 0.0 | 0.0 | 0.00 | 0.00 | 0.00 | 97 | 1011.5 |
| 20260509115843 | 20 | 187 | 0.0 | 0.0 | 0.00 | 0.00 | 0.00 | 97 | 1011.5 |
| 20260509115340 | 20 | 187 | 0.0 | 0.0 | 0.00 | 0.00 | 0.00 | 97 | 1011.6 |
| 20260509114838 | 20 | 187 | 0.0 | 0.0 | 0.00 | 0.00 | 0.00 | 97 | 1011.3 |
| 20260509114336 | 20 | 187 | 0.0 | 0.0 | 0.00 | 0.00 | 0.00 | 96 | 1011.0 |
| 20260509113835 | 20 | 186 | 0.0 | 0.0 | 0.00 | 0.00 | 0.00 | 96 | 1011.0 |
| 20260509113331 | 20 | 188 | 0.0 | 0.0 | 0.00 | 0.00 | 0.00 | 96 | 1011.1 |
| 20260509112828 | 20 | 189 | 0.0 | 0.0 | 0.00 | 0.00 | 0.00 | 96 | 1010.8 |
| 20260509112325 | 20 | 189 | 0.0 | 0.0 | 0.00 | 0.00 | 0.00 | 96 | 1010.7 |
| 20260509111822 | 20 | 188 | 0.0 | 0.0 | 0.00 | 0.00 | 0.00 | 95 | 1010.7 |
| 20260509111319 | 20 | 188 | 0.0 | 0.0 | 0.00 | 0.00 | 0.00 | 95 | 1010.7 |
| 20260509110817 | 21 | 181 | 1.6 | 1.6 | 0.00 | 0.00 | 0.00 | 95 | 1010.5 |
| 20260509110313 | 21 | 190 | 1.6 | 1.6 | 0.00 | 0.00 | 0.00 | 95 | 1010.6 |
| 20260509105811 | 21 | 191 | 1.6 | 1.6 | 0.00 | 0.00 | 0.00 | 95 | 1010.4 |
| 20260509105309 | 21 | 195 | 0.0 | 0.0 | 0.00 | 0.00 | 0.00 | 95 | 1010.4 |
| 20260509104805 | 21 | 197 | 0.0 | 0.0 | 0.00 | 0.00 | 0.00 | 95 | 1010.4 |
| 20260509104302 | 21 | 196 | 0.0 | 0.0 | 0.00 | 0.00 | 0.00 | 95 | 1010.5 |
| 20260509103800 | 21 | 196 | 0.0 | 0.0 | 0.00 | 0.00 | 0.00 | 95 | 1010.5 |
| 20260509103257 | 21 | 196 | 0.0 | 0.0 | 0.00 | 0.00 | 0.00 | 95 | 1010.6 |
| 20260509102756 | 21 | 196 | 0.0 | 0.0 | 0.00 | 0.00 | 0.00 | 95 | 1010.7 |
| 20260509102253 | 21 | 197 | 0.0 | 0.0 | 0.00 | 0.00 | 0.00 | 95 | 1010.6 |
| 20260509101749 | 21 | 197 | 0.0 | 0.0 | 0.00 | 0.00 | 0.00 | 95 | 1010.4 |
| 20260509101245 | 21 | 240 | 0.0 | 0.0 | 0.00 | 0.00 | 0.00 | 95 | 1010.3 |
| 20260509100742 | 21 | 245 | 0.0 | 0.0 | 0.00 | 0.00 | 0.00 | 95 | 1010.4 |
| 20260509100240 | 21 | 246 | 0.0 | 0.0 | 0.00 | 0.00 | 0.00 | 95 | 1010.3 |
| 20260509095736 | 21 | 237 | 0.0 | 0.0 | 0.00 | 0.00 | 0.00 | 95 | 1010.4 |
| 20260509095234 | 20 | 234 | 0.0 | 0.0 | 0.00 | 0.00 | 0.00 | 95 | 1010.4 |
| 20260509094731 | 20 | 234 | 0.0 | 0.0 | 0.00 | 0.00 | 0.00 | 95 | 1010.0 |
| 20260509094227 | 20 | 234 | 0.0 | 0.0 | 0.00 | 0.00 | 0.00 | 95 | 1010.0 |
| 20260509093725 | 20 | 234 | 0.0 | 0.0 | 0.00 | 0.00 | 0.00 | 95 | 1010.0 |
| 20260509093222 | 20 | 235 | 0.0 | 0.0 | 0.00 | 0.00 | 0.00 | 95 | 1009.8 |
| 20260509092720 | 20 | 219 | 0.0 | 0.0 | 0.00 | 0.00 | 0.00 | 95 | 1009.7 |
| 20260509092218 | 20 | 181 | 0.0 | 0.0 | 0.00 | 0.00 | 0.00 | 95 | 1009.2 |
| 20260509091716 | 20 | 154 | 3.2 | 3.2 | 0.00 | 0.00 | 0.00 | 95 | 1008.9 |
| 20260509091212 | 20 | 161 | 0.0 | 1.6 | 0.00 | 0.00 | 0.00 | 94 | 1008.9 |
| 20260509090710 | 21 | 176 | 0.0 | 0.0 | 0.00 | 0.00 | 0.00 | 94 | 1008.7 |
| 20260509090207 | 21 | 148 | 3.2 | 3.2 | 0.00 | 0.00 | 0.00 | 95 | 1008.4 |
| 20260509085705 | 21 | 88 | 3.2 | 4.8 | 0.00 | 0.00 | 0.00 | 94 | 1008.7 |
| 20260509085201 | 21 | 117 | 6.4 | 8.0 | 0.00 | 0.00 | 0.00 | 94 | 1008.8 |
| 20260509084658 | 21 | 187 | 4.8 | 4.8 | 0.00 | 0.00 | 0.00 | 94 | 1009.1 |
| 20260509084154 | 21 | 202 | 3.2 | 4.8 | 0.00 | 0.00 | 0.00 | 94 | 1009.4 |
| 20260509083653 | 21 | 175 | 6.4 | 9.7 | 0.00 | 0.00 | 0.00 | 94 | 1009.3 |
| 20260509083148 | 21 | 191 | 4.8 | 8.0 | 0.00 | 0.00 | 0.00 | 94 | 1009.5 |
| 20260509082646 | 21 | 184 | 1.6 | 3.2 | 0.00 | 0.00 | 0.00 | 94 | 1009.7 |
| 20260509082142 | 21 | 184 | 1.6 | 3.2 | 0.00 | 0.00 | 0.00 | 93 | 1010.0 |
| 20260509081639 | 21 | 179 | 1.6 | 1.6 | 0.00 | 0.00 | 0.00 | 93 | 1010.3 |
| 20260509081137 | 21 | 183 | 6.4 | 9.7 | 0.00 | 0.00 | 0.00 | 93 | 1010.9 |
| 20260509080635 | 21 | 138 | 3.2 | 3.2 | 0.00 | 0.00 | 0.00 | 92 | 1010.7 |
| 20260509080132 | 21 | 165 | 1.6 | 1.6 | 0.00 | 0.00 | 0.00 | 92 | 1010.8 |
| 20260509075630 | 21 | 155 | 3.2 | 3.2 | 0.00 | 0.00 | 0.00 | 92 | 1011.0 |
| 20260509075128 | 21 | 190 | 1.6 | 1.6 | 0.00 | 0.00 | 0.00 | 92 | 1011.2 |
| 20260509074624 | 21 | 175 | 0.0 | 1.6 | 0.00 | 0.00 | 0.00 | 91 | 1011.3 |
| 20260509074121 | 21 | 184 | 0.0 | 1.6 | 0.00 | 0.00 | 0.00 | 91 | 1011.5 |
| 20260509073618 | 21 | 186 | 0.0 | 0.0 | 0.00 | 0.00 | 0.00 | 91 | 1011.4 |
| 20260509073114 | 21 | 191 | 0.0 | 1.6 | 0.00 | 0.00 | 0.00 | 91 | 1012.0 |
| 20260509072611 | 21 | 184 | 3.2 | 4.8 | 0.00 | 0.00 | 0.00 | 91 | 1011.6 |
| 20260509072108 | 21 | 181 | 4.8 | 4.8 | 0.00 | 0.00 | 0.00 | 92 | 1011.9 |
| 20260509071604 | 21 | 196 | 1.6 | 1.6 | 0.00 | 0.00 | 0.00 | 92 | 1012.1 |
| 20260509071102 | 21 | 208 | 1.6 | 1.6 | 0.00 | 0.00 | 0.00 | 92 | 1012.1 |
| 20260509070559 | 21 | 227 | 0.0 | 1.6 | 0.00 | 0.00 | 0.00 | 92 | 1012.1 |
| 20260509070055 | 21 | 213 | 0.0 | 0.0 | 0.00 | 0.00 | 0.00 | 92 | 1011.8 |
| 20260509065550 | 21 | 209 | 0.0 | 0.0 | 0.00 | 0.00 | 0.00 | 92 | 1011.8 |
| 20260509065047 | 21 | 212 | 1.6 | 1.6 | 0.00 | 0.00 | 0.00 | 92 | 1011.5 |
| 20260509064544 | 21 | 200 | 0.0 | 0.0 | 0.00 | 0.00 | 0.00 | 92 | 1011.3 |
| 20260509064042 | 21 | 182 | 3.2 | 3.2 | 0.00 | 0.00 | 0.00 | 92 | 1011.2 |
| 20260509063537 | 21 | 168 | 3.2 | 3.2 | 0.00 | 0.00 | 0.00 | 92 | 1011.2 |
| 20260509063035 | 21 | 202 | 0.0 | 0.0 | 0.00 | 0.00 | 0.00 | 92 | 1011.4 |
| 20260509062532 | 21 | 188 | 0.0 | 0.0 | 0.00 | 0.00 | 0.00 | 92 | 1011.4 |
| 20260509062030 | 21 | 191 | 0.0 | 0.0 | 0.00 | 0.00 | 0.00 | 91 | 1011.7 |
| 20260509061526 | 21 | 203 | 0.0 | 0.0 | 0.00 | 0.00 | 0.00 | 91 | 1011.5 |
| 20260509061024 | 21 | 180 | 1.6 | 1.6 | 0.00 | 0.00 | 0.00 | 91 | 1011.7 |
| 20260509060521 | 21 | 204 | 0.0 | 0.0 | 0.00 | 0.00 | 0.00 | 91 | 1012.2 |
| 20260509060017 | 21 | 194 | 0.0 | 0.0 | 0.00 | 0.00 | 0.00 | 90 | 1012.2 |
| 20260509055512 | 21 | 198 | 0.0 | 1.6 | 0.00 | 0.00 | 0.00 | 90 | 1012.0 |
| 20260509055009 | 21 | 229 | 0.0 | 0.0 | 0.00 | 0.00 | 0.00 | 89 | 1012.5 |
| 20260509054505 | 21 | 228 | 1.6 | 1.6 | 0.00 | 0.00 | 0.00 | 88 | 1012.2 |
| 20260509054004 | 21 | 189 | 1.6 | 1.6 | 0.00 | 0.00 | 0.00 | 88 | 1012.0 |
| 20260509053502 | 21 | 177 | 3.2 | 3.2 | 0.00 | 0.00 | 0.00 | 88 | 1012.4 |
| 20260509052958 | 21 | 235 | 0.0 | 1.6 | 0.00 | 0.00 | 0.00 | 88 | 1012.7 |
| 20260509052456 | 21 | 246 | 0.0 | 1.6 | 0.00 | 0.00 | 0.00 | 88 | 1012.8 |
| 20260509051954 | 21 | 267 | 1.6 | 1.6 | 0.00 | 0.00 | 0.00 | 88 | 1012.8 |
| 20260509051451 | 21 | 245 | 3.2 | 3.2 | 0.00 | 0.00 | 0.00 | 87 | 1012.4 |
| 20260509050948 | 21 | 191 | 0.0 | 0.0 | 0.00 | 0.00 | 0.00 | 87 | 1011.9 |
| 20260509050445 | 21 | 187 | 1.6 | 1.6 | 0.00 | 0.00 | 0.00 | 87 | 1011.7 |
| 20260509045941 | 21 | 177 | 3.2 | 3.2 | 0.00 | 0.03 | 0.03 | 86 | 1011.5 |
| 20260509045439 | 22 | 205 | 0.0 | 0.0 | 0.00 | 0.03 | 0.03 | 86 | 1011.4 |
| 20260509044935 | 22 | 193 | 1.6 | 1.6 | 0.00 | 0.03 | 0.03 | 85 | 1011.2 |
| 20260509044434 | 22 | 173 | 4.8 | 4.8 | 0.00 | 0.03 | 0.03 | 85 | 1011.0 |
| 20260509043931 | 22 | 189 | 1.6 | 1.6 | 0.00 | 0.03 | 0.03 | 85 | 1011.3 |
| 20260509043426 | 22 | 199 | 1.6 | 1.6 | 0.00 | 0.03 | 0.03 | 84 | 1011.3 |
| 20260509042921 | 22 | 182 | 0.0 | 1.6 | 0.00 | 0.03 | 0.03 | 84 | 1011.3 |
| 20260509042419 | 22 | 193 | 1.6 | 1.6 | 0.00 | 0.03 | 0.03 | 83 | 1010.9 |
| 20260509041915 | 22 | 211 | 6.4 | 8.0 | 0.00 | 0.03 | 0.03 | 83 | 1011.3 |
| 20260509041412 | 22 | 164 | 1.6 | 1.6 | 0.00 | 0.03 | 0.03 | 82 | 1011.6 |
| 20260509040910 | 22 | 137 | 3.2 | 3.2 | 0.00 | 0.03 | 0.03 | 81 | 1011.9 |
| 20260509040408 | 22 | 186 | 1.6 | 1.6 | 0.00 | 0.03 | 0.03 | 82 | 1012.2 |
| 20260509035905 | 22 | 213 | 0.0 | 0.0 | 0.00 | 0.03 | 0.03 | 82 | 1012.3 |
| 20260509035402 | 22 | 212 | 0.0 | 0.0 | 0.00 | 0.03 | 0.03 | 82 | 1012.3 |
| 20260509034858 | 22 | 206 | 0.0 | 0.0 | 0.00 | 0.03 | 0.03 | 82 | 1012.0 |
| 20260509034355 | 22 | 202 | 1.6 | 1.6 | 0.00 | 0.03 | 0.03 | 82 | 1012.3 |
| 20260509033852 | 22 | 198 | 0.0 | 0.0 | 0.00 | 0.03 | 0.03 | 82 | 1012.0 |
| 20260509033350 | 22 | 198 | 0.0 | 0.0 | 0.00 | 0.03 | 0.03 | 82 | 1011.9 |
| 20260509032846 | 22 | 205 | 0.0 | 0.0 | 0.00 | 0.03 | 0.03 | 82 | 1011.6 |
| 20260509032343 | 22 | 204 | 0.0 | 0.0 | 0.00 | 0.03 | 0.03 | 82 | 1011.4 |
| 20260509031842 | 22 | 200 | 1.6 | 3.2 | 0.00 | 0.03 | 0.03 | 82 | 1011.4 |
| 20260509031338 | 22 | 187 | 1.6 | 1.6 | 0.00 | 0.03 | 0.03 | 82 | 1011.4 |
| 20260509030836 | 22 | 174 | 1.6 | 1.6 | 0.00 | 0.03 | 0.03 | 82 | 1011.6 |
| 20260509030334 | 22 | 186 | 0.0 | 0.0 | 0.00 | 0.03 | 0.03 | 82 | 1011.6 |
| 20260509025831 | 22 | 182 | 0.0 | 1.6 | 0.00 | 0.03 | 0.03 | 82 | 1011.3 |
| 20260509025326 | 22 | 154 | 1.6 | 1.6 | 0.00 | 0.03 | 0.03 | 82 | 1011.2 |
| 20260509024821 | 22 | 187 | 0.0 | 1.6 | 0.00 | 0.03 | 0.03 | 82 | 1011.0 |
| 20260509024318 | 22 | 201 | 1.6 | 1.6 | 0.00 | 0.03 | 0.03 | 82 | 1010.7 |
| 20260509023815 | 22 | 145 | 3.2 | 3.2 | 0.00 | 0.03 | 0.03 | 82 | 1010.8 |
| 20260509023312 | 22 | 177 | 0.0 | 0.0 | 0.00 | 0.03 | 0.03 | 82 | 1010.8 |
| 20260509022809 | 22 | 176 | 0.0 | 1.6 | 0.00 | 0.03 | 0.03 | 81 | 1010.7 |
| 20260509022307 | 22 | 189 | 3.2 | 3.2 | 0.00 | 0.03 | 0.03 | 81 | 1010.6 |
| 20260509021803 | 22 | 178 | 3.2 | 3.2 | 0.00 | 0.03 | 0.03 | 80 | 1010.5 |
| 20260509021300 | 22 | 182 | 1.6 | 1.6 | 0.00 | 0.03 | 0.03 | 81 | 1010.6 |
| 20260509020757 | 22 | 182 | 0.0 | 0.0 | 0.00 | 0.03 | 0.03 | 81 | 1010.4 |
| 20260509020255 | 22 | 197 | 1.6 | 1.6 | 0.00 | 0.03 | 0.03 | 81 | 1010.5 |
| 20260509015753 | 22 | 191 | 0.0 | 0.0 | 0.00 | 0.03 | 0.03 | 80 | 1010.5 |
| 20260509015251 | 22 | 189 | 8.0 | 11.3 | 0.00 | 0.03 | 0.03 | 80 | 1010.6 |
| 20260509014747 | 22 | 180 | 3.2 | 8.0 | 0.00 | 0.03 | 0.03 | 80 | 1010.5 |
| 20260509014244 | 22 | 195 | 4.8 | 4.8 | 0.00 | 0.03 | 0.03 | 80 | 1010.4 |
| 20260509013741 | 22 | 183 | 3.2 | 3.2 | 0.00 | 0.03 | 0.03 | 80 | 1010.6 |
| 20260509013236 | 22 | 198 | 1.6 | 1.6 | 0.00 | 0.03 | 0.03 | 80 | 1010.3 |
| 20260509012733 | 22 | 192 | 1.6 | 3.2 | 0.00 | 0.03 | 0.03 | 80 | 1010.2 |
| 20260509012230 | 22 | 188 | 1.6 | 3.2 | 0.00 | 0.03 | 0.03 | 79 | 1010.3 |
| 20260509011727 | 22 | 197 | 1.6 | 1.6 | 0.00 | 0.03 | 0.03 | 79 | 1010.1 |
| 20260509011225 | 22 | 185 | 1.6 | 1.6 | 0.00 | 0.03 | 0.03 | 79 | 1010.0 |
| 20260509010723 | 22 | 193 | 3.2 | 4.8 | 0.00 | 0.03 | 0.03 | 79 | 1009.9 |
| 20260509010219 | 22 | 185 | 3.2 | 3.2 | 0.00 | 0.03 | 0.03 | 79 | 1009.9 |
| 20260509005716 | 22 | 192 | 1.6 | 3.2 | 0.00 | 0.03 | 0.03 | 78 | 1009.8 |
| 20260509005214 | 22 | 185 | 4.8 | 8.0 | 0.00 | 0.03 | 0.03 | 78 | 1009.9 |
| 20260509004713 | 22 | 187 | 1.6 | 1.6 | 0.00 | 0.03 | 0.03 | 78 | 1010.0 |
| 20260509004212 | 22 | 182 | 1.6 | 1.6 | 0.00 | 0.03 | 0.03 | 77 | 1010.0 |
| 20260509003709 | 22 | 200 | 0.0 | 1.6 | 0.00 | 0.03 | 0.03 | 77 | 1009.6 |
| 20260509003207 | 23 | 193 | 1.6 | 1.6 | 0.00 | 0.03 | 0.03 | 76 | 1009.6 |
| 20260509002704 | 23 | 180 | 1.6 | 4.8 | 0.00 | 0.03 | 0.03 | 76 | 1009.6 |
| 20260509002201 | 23 | 189 | 1.6 | 1.6 | 0.00 | 0.03 | 0.03 | 76 | 1009.7 |
| 20260509001659 | 23 | 137 | 3.2 | 3.2 | 0.00 | 0.03 | 0.03 | 75 | 1009.7 |
| 20260509001155 | 23 | 181 | 0.0 | 0.0 | 0.00 | 0.03 | 0.03 | 75 | 1010.0 |
| 20260509000653 | 23 | 214 | 4.8 | 4.8 | 0.00 | 0.03 | 0.03 | 74 | 1009.7 |
| 20260509000149 | 23 | 134 | 3.2 | 4.8 | 0.00 | 0.03 | 0.03 | 73 | 1009.9 |
| 20260508235647 | 23 | 175 | 3.2 | 3.2 | 0.00 | 0.03 | 0.03 | 73 | 1010.1 |
| 20260508235143 | 23 | 178 | 1.6 | 1.6 | 0.00 | 0.03 | 0.03 | 74 | 1010.1 |
| 20260508234641 | 23 | 192 | 1.6 | 1.6 | 0.00 | 0.03 | 0.03 | 74 | 1010.2 |
| 20260508234137 | 23 | 192 | 1.6 | 1.6 | 0.00 | 0.03 | 0.03 | 73 | 1010.0 |
| 20260508233636 | 23 | 151 | 3.2 | 3.2 | 0.00 | 0.03 | 0.03 | 72 | 1010.2 |
| 20260508233134 | 23 | 183 | 4.8 | 4.8 | 0.00 | 0.03 | 0.03 | 72 | 1010.2 |
| 20260508232631 | 23 | 159 | 3.2 | 4.8 | 0.00 | 0.03 | 0.03 | 72 | 1010.4 |
| 20260508232128 | 23 | 171 | 6.4 | 8.0 | 0.00 | 0.03 | 0.03 | 72 | 1010.2 |
| 20260508231625 | 24 | 175 | 4.8 | 8.0 | 0.00 | 0.03 | 0.03 | 71 | 1010.2 |
| 20260508231122 | 24 | 131 | 3.2 | 3.2 | 0.00 | 0.03 | 0.03 | 71 | 1010.1 |
| 20260508230618 | 23 | 176 | 6.4 | 9.7 | 0.00 | 0.03 | 0.03 | 71 | 1010.4 |
| 20260508230115 | 23 | 203 | 1.6 | 8.0 | 0.00 | 0.03 | 0.03 | 72 | 1010.4 |
| 20260508225613 | 23 | 186 | 4.8 | 9.7 | 0.00 | 0.03 | 0.03 | 72 | 1010.4 |
| 20260508225109 | 23 | 178 | 3.2 | 4.8 | 0.00 | 0.03 | 0.03 | 72 | 1010.4 |
| 20260508224607 | 23 | 161 | 4.8 | 8.0 | 0.00 | 0.03 | 0.03 | 72 | 1010.4 |
| 20260508224104 | 23 | 197 | 4.8 | 11.3 | 0.00 | 0.03 | 0.03 | 72 | 1010.1 |
| 20260508223602 | 24 | 202 | 8.0 | 9.7 | 0.00 | 0.03 | 0.03 | 70 | 1010.2 |
| 20260508223059 | 25 | 189 | 4.8 | 8.0 | 0.00 | 0.03 | 0.03 | 70 | 1010.2 |
| 20260508222556 | 25 | 94 | 3.2 | 4.8 | 0.00 | 0.03 | 0.03 | 69 | 1010.3 |
| 20260508222053 | 25 | 214 | 4.8 | 4.8 | 0.00 | 0.03 | 0.03 | 71 | 1010.2 |
| 20260508221549 | 25 | 211 | 6.4 | 8.0 | 0.00 | 0.03 | 0.03 | 70 | 1010.2 |
| 20260508221045 | 25 | 174 | 8.0 | 14.5 | 0.00 | 0.03 | 0.03 | 69 | 1010.1 |
| 20260508220542 | 25 | 198 | 4.8 | 8.0 | 0.00 | 0.03 | 0.03 | 69 | 1010.1 |
| 20260508220038 | 25 | 196 | 1.6 | 1.6 | 0.00 | 0.03 | 0.03 | 69 | 1010.1 |
| 20260508215535 | 25 | 198 | 8.0 | 9.7 | 0.00 | 0.03 | 0.03 | 68 | 1010.0 |
| 20260508215032 | 25 | 208 | 4.8 | 4.8 | 0.00 | 0.03 | 0.03 | 70 | 1010.2 |
| 20260508214529 | 25 | 124 | 1.6 | 3.2 | 0.00 | 0.03 | 0.03 | 70 | 1010.1 |
| 20260508214025 | 25 | 199 | 6.4 | 9.7 | 0.00 | 0.03 | 0.03 | 70 | 1010.1 |
| 20260508213523 | 24 | 187 | 1.6 | 3.2 | 0.00 | 0.03 | 0.03 | 71 | 1010.1 |
| 20260508213018 | 25 | 198 | 8.0 | 12.9 | 0.00 | 0.03 | 0.03 | 71 | 1010.1 |
| 20260508212515 | 24 | 146 | 3.2 | 4.8 | 0.00 | 0.03 | 0.03 | 72 | 1010.0 |
| 20260508212012 | 24 | 178 | 3.2 | 3.2 | 0.00 | 0.03 | 0.03 | 75 | 1010.2 |
| 20260508211507 | 23 | 213 | 4.8 | 4.8 | 0.00 | 0.03 | 0.03 | 78 | 1010.4 |
| 20260508211004 | 22 | 198 | 3.2 | 4.8 | 0.00 | 0.03 | 0.03 | 79 | 1010.8 |
| 20260508210501 | 22 | 186 | 3.2 | 3.2 | 0.00 | 0.03 | 0.03 | 81 | 1011.0 |
| 20260508205957 | 22 | 188 | 0.0 | 1.6 | 0.00 | 0.03 | 0.03 | 81 | 1011.4 |
| 20260508205454 | 22 | 167 | 3.2 | 4.8 | 0.00 | 0.03 | 0.03 | 80 | 1011.6 |
| 20260508204951 | 22 | 183 | 1.6 | 1.6 | 0.00 | 0.03 | 0.03 | 79 | 1011.6 |
| 20260508204448 | 23 | 185 | 1.6 | 1.6 | 0.00 | 0.03 | 0.03 | 75 | 1011.7 |
| 20260508203943 | 23 | 191 | 4.8 | 4.8 | 0.00 | 0.03 | 0.03 | 71 | 1012.2 |
| 20260508203440 | 23 | 183 | 1.6 | 3.2 | 0.00 | 0.03 | 0.03 | 71 | 1012.1 |
| 20260508202935 | 23 | 189 | 1.6 | 3.2 | 0.00 | 0.03 | 0.03 | 71 | 1012.1 |
| 20260508202433 | 23 | 192 | 3.2 | 3.2 | 0.00 | 0.03 | 0.03 | 71 | 1012.3 |
| 20260508201930 | 23 | 166 | 8.0 | 8.0 | 0.00 | 0.03 | 0.03 | 70 | 1012.0 |
| 20260508201426 | 23 | 169 | 1.6 | 3.2 | 0.00 | 0.03 | 0.03 | 70 | 1012.2 |